Home > Time Zones > World Clock > Weather > Japan > Naha > Past weeks

Flag for Japan Weather past 2 weeks in Naha, Okinawa, Japan

Now
77 °F

Passing clouds.


Feels Like: 79 °F
Forecast: 66 / 76 °F
Wind: 10 mph from Southwest

Location: Naha Airport


UV Index: 7 (High)

Visibility: N/A


Pressure: 29.98 "Hg

Humidity: 74%

Dew point: 68 °F

Location of NahaLocation

Historic Weather in Naha

°F

Naha temperature yesterday

Maximum temperature yesterday: 77 °F (at 1:00 PM)
Minimum temperature yesterday: 68 °F (at 3:30 AM)
Average temperature yesterday: 73 °F

Past Weeks' High & Low Weather Summary

 TemperatureHumidityPressure
High79 °F (Apr 13, 11:30 AM)94% (Apr 3, 4:30 PM)30.18 "Hg (Apr 3, 4:30 PM)
Low59 °F (Apr 4, 9:30 PM)44% (Apr 16, 12:00 PM)29.80 "Hg (Apr 3, 3:30 PM)
Average69 °F67%30.00 "Hg
* Reported Apr 3 9:00 AM — Apr 18 9:00 AM, Naha, Weather by CustomWeather, © 2014

Note: Actual official high and low records may vary slightly from our data, if they occured in-between our weather recording intervals... More about our weather records

Advertising

Historic Weather Conditions — Data for Previous 24 hours

 ConditionsComfort  
Time TempWeatherWind HumidityBarometerVisibility
9:00 AM
Apr 18
75 °FPassing clouds.10 mph74%29.98 "HgN/A
8:30 AM75 °FPassing clouds.9 mph74%29.98 "HgN/A
8:00 AM75 °FPassing clouds.8 mph74%29.98 "HgN/A
7:30 AM73 °FPassing clouds.8 mph78%29.95 "HgN/A
7:00 AM72 °FPassing clouds.9 mph83%29.95 "HgN/A
6:30 AM72 °FPassing clouds.6 mph78%29.95 "HgN/A
6:00 AM72 °FPassing clouds.5 mph78%29.95 "HgN/A
5:30 AM70 °FPassing clouds.6 mph83%29.92 "HgN/A
5:00 AM72 °FPassing clouds.5 mph78%29.92 "HgN/A
4:30 AM72 °FPassing clouds.5 mph78%29.92 "HgN/A
4:00 AM72 °FPassing clouds.5 mph78%29.92 "HgN/A
3:30 AM72 °FPassing clouds.6 mph78%29.92 "HgN/A
3:00 AM72 °FPassing clouds.6 mph78%29.95 "HgN/A
2:00 AM72 °FPassing clouds.8 mph78%29.95 "HgN/A
1:30 AM72 °FPassing clouds.9 mph78%29.95 "HgN/A
1:00 AM72 °FPassing clouds.10 mph78%29.95 "HgN/A
12:30 AM72 °FPassing clouds.12 mph78%29.98 "HgN/A
12:00 AM72 °FPassing clouds.12 mph78%29.98 "HgN/A
11:30 PM
Apr 17
72 °FPassing clouds.12 mph78%29.98 "HgN/A
11:00 PM73 °FPassing clouds.13 mph74%29.98 "HgN/A
10:30 PM72 °FPassing clouds.12 mph78%29.98 "HgN/A
10:00 PM72 °FPassing clouds.13 mph73%29.98 "HgN/A
9:30 PM72 °FPassing clouds.12 mph73%29.98 "HgN/A
9:00 PM73 °FPassing clouds.10 mph69%29.95 "HgN/A
8:30 PM72 °FPassing clouds.9 mph73%29.95 "HgN/A
8:00 PM73 °FPassing clouds.10 mph65%29.95 "HgN/A
7:30 PM73 °FPassing clouds.8 mph65%29.95 "HgN/A
7:00 PM73 °FPassing clouds.10 mph69%29.95 "HgN/A
6:30 PM73 °FPassing clouds.13 mph65%29.95 "HgN/A
6:00 PM73 °FPassing clouds.13 mph65%29.92 "HgN/A
5:30 PM75 °FPassing clouds.13 mph61%29.92 "HgN/A
5:00 PM75 °FScattered clouds.14 mph61%29.92 "HgN/A
4:30 PM75 °FScattered clouds.13 mph61%29.95 "HgN/A
4:00 PM75 °FBroken clouds.13 mph61%29.92 "HgN/A
3:30 PM75 °FScattered clouds.13 mph61%29.92 "HgN/A
3:00 PM77 °FScattered clouds.14 mph57%29.92 "HgN/A
2:30 PM77 °FScattered clouds.13 mph61%29.92 "HgN/A
2:00 PM77 °FScattered clouds.12 mph57%29.95 "HgN/A
1:30 PM75 °FScattered clouds.13 mph61%29.95 "HgN/A
1:00 PM77 °FScattered clouds.15 mph57%29.95 "HgN/A
12:30 PM75 °FScattered clouds.15 mph61%29.95 "HgN/A
12:00 PM75 °FScattered clouds.13 mph61%29.98 "HgN/A
11:30 AM75 °FBroken clouds.12 mph61%29.98 "HgN/A
11:00 AM75 °FBroken clouds.13 mph61%29.98 "HgN/A
10:30 AM75 °FBroken clouds.13 mph61%29.98 "HgN/A
10:00 AM73 °FBroken clouds.10 mph65%29.98 "HgN/A
Weather by CustomWeather, © 2014

See weather overview